www.pogodaiklimat.ru

Погода и климат >> Архив погоды >> Гана >> Ва


ПОГОДА в Ва

  • Прогноз погоды в Ва
  • Монитор погоды в Ва

АРХИВ ПОГОДЫ в Ва

Время (UTC), дата Ветер
(напр.,м/с)
 
Видим.   Явления Облачность Т
(С)
Тd
(С)
f
(%)
Тe
(С)
Тes
(С)
Комфортность P
(гПа)
Po
(гПа)
Тmin
(С)
Tmax
(С)
R
(мм)
R24
(мм)
S
(см)
18 12.06 ЮЗ 3 12 км 6/6 400 м
[Cu Sc]
+32.5 +22.1 54 +41 +41 опасность
перегрева
1011.2 975.3 +33.5
09 13.06 ЮЗ 2 12 км 9/3 450 м
[Cu hum Ac trans Cs]
+28.0 +23.9 78 +39 +43 очень
душно
1016.2 979.6
12 13.06 ЮЗ 3 12 км гроза без осадков 9/6 400 м
[Cb cap Ac trans]
+31.0 +23.5 64 +42 +46 опасность
перегрева
1015.4 979.2
15 13.06 ЮЗ 2 12 км {гроза, дождь} 9/4 400 м
[Cu Sc Ac trans]
+29.5 +24.8 76 +42 +46 опасность
перегрева
1013.3 977.0
18 13.06 ЮЗ 2 12 км в посл. час дождь 9/6 360 м
[Sc Ac trans]
+27.0 +24.6 87 +38 +38 очень
душно
1012.3 975.7 +30.6 3
21 13.06 штиль 0 12 км 9/3 360 м
[Sc Ac trans]
+27.0 +24.3 85 +38 +38 очень
душно
1014.9 978.3
00 14.06 штиль 0 12 км 9/3 360 м
[Sc Ac trans]
+26.0 +25.3 96 +38 +38 очень
душно
1015.1 978.3
03 14.06 штиль 0 12 км 9/3 360 м
[Sc Ac trans]
+25.5 +24.8 96 +36 +36 очень
душно
1014.5 977.7
06 14.06 ЮЗ 1 12 км 9/3 360 м
[Sc Ac trans]
+24.5 +22.4 88 +32 +32 очень
душно
1014.6 977.7 +24.0 3
09 14.06 ЮЗ 2 12 км 9/4 360 м
[Sc Ac trans]
+26.8 +24.3 86 +37 +41 очень
душно
1015.0 978.3
12 14.06 СЗ 1 12 км 9/4 480 м
[Cu med, cong Ac trans Cs]
+32.5 +23.8 60 +44 +52 опасность
перегрева
1014.2 978.2
15 14.06 ЮЗ 2 12 км 9/6 400 м
[Cu Sc Ac trans Cs]
+34.0 +23.1 53 +44 +47 опасность
перегрева
1010.6 974.9
18 14.06 ЮЗ 2 12 км 9/4 480 м
[Cu med, cong Cs]
+33.0 +24.2 60 +45 +45 опасность
перегрева
1010.3 974.5 +34.0
21 14.06 ЮЗ 3 12 км гроза без осадков 9/8 330 м
[Cb cap Ac trans]
+27.5 +24.1 82 +38 +38 очень
душно
1014.7 978.1
00 15.06 ЮЗ 2 12 км {гроза} 9/6 330 м
[Sc Ac trans]
+25.5 +21.2 77 +32 +32 очень
душно
1014.8 978.0 6
03 15.06 ЮЗ 1 12 км 6/3 360 м
[Sc Ac trans Ci sp]
+24.5 +21.7 84 +31 +31 очень
душно
1012.9 976.0
06 15.06 ЮЗ 2 12 км 8/3 360 м
[Sc Ac trans Ci sp]
+24.0 +21.9 88 +31 +31 очень
душно
1013.8 976.8 +23.2 6
09 15.06 ЮЗ 2 12 км 5/0
[Ac trans]
+27.5 +21.1 68 +35 +42 очень
душно
1015.2 978.6
12 15.06 СВ 2 12 км 6/0
[Ac trans Cs]
+31.0 +22.5 61 +41 +56 опасность
перегрева
1013.5 977.4
15 15.06 ЮЗ 2 12 км 8/4 360 м
[Cu Sc Cs]
+33.3 +22.6 54 +43 +50 опасность
перегрева
1011.3 975.5
18 15.06 ЮЗ 1 12 км 9/0 300 м
[Sc Cs]
+33.0 +22.9 55 +43 +43 опасность
перегрева
1011.3 975.5 +33.5
09 16.06 ЮЗ 2 12 км 8/0
[Cs]
+29.0 +23.5 72 +39 +49 очень
душно
1015.2 978.8
12 16.06 ЮЗ 2 12 км 8/6 480 м
[Cu med, cong Ci sp]
+33.5 +24.8 60 +47 +55 опасность
перегрева
1014.6 978.7
15 16.06 ЮЗ 2 12 км 6/6 500 м
[Cu med, cong]
+35.5 +22.5 47 +45 +50 опасность
перегрева
1011.4 975.9
18 16.06 ЮЗ 2 12 км 4/4 480 м
[Cu med, cong]
+35.0 +21.9 47 +44 +44 опасность
перегрева
1010.9 975.3 +35.8
21 16.06 ЮЗ 2 12 км 4/0
[Ci sp]
+31.5 +23.0 61 +42 +42 опасность
перегрева
1013.5 977.4
00 17.06 ЮЗ 2 12 км 6/0
[Ac trans Cs]
+29.2 +23.3 71 +40 +40 очень
душно
1013.6 977.3
03 17.06 ЮЗ 2 10 км ясно +27.2 +23.5 80 +37 +37 очень
душно
1013.6 977.0
06 17.06 ЮЗ 2 12 км 9/4 360 м
[Sc Ac trans]
+25.9 +23.6 87 +35 +35 очень
душно
1014.5 977.7 +25.0
09 17.06 ЮЗ 3 9000 м гроза, ливневой дождь 9/6 330 м
[Cb cap Ac trans]
+22.0 +21.3 96 +29 +30 очень
душно
1015.7 978.4
12 17.06 ЮЗ 2 12 км {гроза, дождь} 9/6 360 м
[Cu Sc Ac trans]
+26.0 +22.5 81 +34 +39 очень
душно
1015.0 978.2 2
15 17.06 ЮЗ 2 12 км 9/4 400 м
[Sc Ac trans]
+20.5 +22.9 100 +26 +30 душно 1012.1 974.8
18 17.06 ЮЗ 1 12 км ясно +30.5 +22.9 64 +40 +41 очень
душно
1011.7 975.6 +31.0 16
21 17.06 штиль 0 12 км ясно +27.5 +24.1 82 +38 +38 очень
душно
1014.8 978.2
00 18.06 ЮЗ 1 12 км 6/0
[Ac trans]
+27.0 +24.3 85 +38 +38 очень
душно
1015.9 979.2
03 18.06 штиль 0 12 км 3/0
[Ac trans]
+27.0 +24.3 85 +38 +38 очень
душно
1014.7 978.1
06 18.06 ЮЗ 2 12 км 3/0
[Ci sp]
+25.2 +23.5 90 +34 +34 очень
душно
1015.8 978.9 +24.5 16
09 18.06 ЮЗ 2 12 км 3/0
[Ci sp]
+29.2 +22.4 67 +38 +49 очень
душно
1015.5 979.1
12 18.06 ЮЗ 2 12 км 4/4 400 м
[Cu Sc]
+32.5 +23.4 59 +43 +57 опасность
перегрева
1014.5 978.5
15 18.06 ЮВ 2 12 км 8/8 400 м
[Cu Sc]
+34.7 +22.8 50 +44 +47 опасность
перегрева
1012.1 976.5
18 18.06 ЮВ 1 12 км 4/4 400 м
[Cu Sc]
+34.6 +22.9 51 +45 +45 опасность
перегрева
1011.4 975.8 +35.0
00 19.06 штиль 0 12 км ясно +29.0 +23.5 72 +39 +39 очень
душно
1014.4 978.0
06 19.06 ЮЗ 2 12 км ясно +26.5 +23.0 81 +35 +35 очень
душно
1014.2 977.5 +26.0
09 19.06 З 2 12 км 1/0
[Ci sp]
+29.4 +23.5 71 +40 +50 очень
душно
1015.2 978.8
15 19.06 ЮВ 3 12 км 9/1 480 м
[Cu med, cong Ac trans]
+34.6 +20.5 44 +41 +45 опасность
перегрева
1011.0 975.4

 

Местоположение метеостанции Ва (Гана): широта 10.05 долгота -2.50 высота над уровнем моря 323 м.

В архиве по умолчанию представлена погода в Ва за последнюю неделю. Архивные данные за месяц целиком и за предыдущие месяцы, начиная с января 2011 года, Вы можете получить, выбрав интересующий диапазон дат из раскрывающегося списка и нажав кнопку "Ввод!".


*Определитесь, кто Вы:
робот инопланетянин человек

Внимание! Время в таблицах - всемирное. Для получения местного времени необходимо прибавить поправку, которая равна 1 ч.

Смотрите также архив погоды в соседних городах и на ближайших метеорологических станциях:

Погода в Гауа (Буркина-Фасо) (81 км)
Погода в Боле (Гана) (113 км)
Погода в Навронго (Гана) (180 км)
Погода в Тамале (Гана) (191 км)
Погода в По (Буркина-Фасо) (192 км)
Погода в Боромо (Буркина-Фасо) (195 км)
Погода в Бондуку (Кот-д'Ивуар) (225 км)
Погода в Бобо-Диуласо (Буркина-Фасо) (235 км)
Погода в Уэнчи (Гана) (260 км)
Погода в Уагадугу (Буркина-Фасо) (277 км)

Пояснения к столбцам:

Ветер - указаны скорость ветра в м/с - средняя за 10 мин, порывы в срок и между сроками (в фигурных скобках) и направление, откуда дует ветер: С - северный, СВ - северо-восточный, В - восточный, ЮВ - юго-восточный, Ю - южный, ЮЗ - юго-западный, З - западный, СЗ - северо-западный.
Видимость - горизонтальная дальность видимости в метрах или километрах. При видимости от 1 до 10 км при отсутствии осадков обычно наблюдается дымка, при ухудшении видимости до 1 км и менее - туман. В сухую погоду видимость может ухудшаться дымом, пылью или мглою.
Явления - указаны атмосферные явления, наблюдавшиеся в срок или в последний час перед сроком; фигурными скобками обозначены явления, наблюдавшиеся между сроками (за 1-3 часа до срока); квадратными скобками обозначены град или гололедные отложения с указанием их диаметра в мм.
Облачность - указаны через наклонную черту общая и нижняя облачность в баллах и высота нижней границы облаков в метрах; квадратными скобками обозначены формы облаков: Ci - перистые, Cs - перисто-слоистые, Cc - перисто-кучевые, Ac - высококучевые, As - высокослоистые, Sc - слоисто-кучевые, Ns - слоисто-дождевые, Cu - кучевые, Cb - кучево-дождевые. Подробнее классификацию облаков см. в Атласе облаков (PDF).
T - Температура воздуха - температура, измеренная на высоте 2 м над землей.
Td - Температура точки росы - температура, при понижении до которой содержащийся в воздухе водяной пар достигнет насыщения.
f - Относительная влажность воздуха - влажноcть воздуха, измеренная на высоте 2 м над землей.
Te - Эффективная температура - температура, которую ощущает одетый по сезону человек в тени. Характеристика душности погоды. При расчете учитывается влияние влажности воздуха и скорости ветра на теплоощущения человека.
Tes - Эффективная температура на солнце - температура, которую ощущает человек, с поправкой на солнечный нагрев. Характеристика знойности погоды. Зависит от высоты солнца над горизонтом, облачности и скорости ветра. Ночью, в пасмурную погоду, а также при ветре 12 м/с и более поправка равна нулю.
P - Атмосферное давление - приведенное к уровню моря атмосферное давление.
Po - Атмосферное давление - измеренное на уровне метеостанции атмосферное давление.
Tmin - Минимальная температура - минимум температуры воздуха на высоте 2 м над землей.
Tmax - Максимальная температура - максимум температуры воздуха на высоте 2 м над землей.
R - Количество осадков - Количество выпавших осадков за период времени, мм. При наведении курсора мыши на число - период времени, за который выпало указанное количество осадков.
R24 - Количество осадков - Количество выпавших осадков за 24 часа, мм.
S - Снежный покров - Высота снежного покрова, см. При наведении курсора мыши на число - состояние снежного покрова и степень покрытия местности в баллах.